Location: Nitra
(48.3167°N, 18.0833°E)
Time: 17:32:56
(UTC+01:00)

STARLINK-1670 - Pass Details

Date: 24 September 2020
Orbit: 378 x 381 km, 53.0° (Epoch: 30 October)

Event Time Altitude Azimuth Distance (km) Brightness Sun altitude
Exits shadow 05:09:24 19° 309° (NW) 1,052 4.7 -15.3°
Maximum altitude 05:11:23 39° 10° (N) 632 4.1 -14.9°
Drops below altitude 10° 05:14:32 10° 82° (E) 1,480 7.2 -14.4°
Sets 05:16:42 0° 90° (E) 2,337 8.4 -14.1°
